GFSMA_925_rhum_333.txt.gz
RH
48 45 44 44 44 41 57 61 61 60 62 67 69 66 64 63 61 53 53 43 52 62 85 83 73 72 69 72 77 81 82 82 84 92 94 99 93 80 73 85 85 79 79
49 46 48 46 46 45 60 59 59 57 57 62 66 68 65 63 60 57 51 53 40 52 69 86 88 78 73 69 74 78 82 81 87 88 91 92 98 78 73 85 86 78 77
50 50 56 54 54 47 48 49 59 60 59 64 65 66 64 63 57 60 57 54 53 45 51 55 82 86 92 74 71 76 79 83 89 92 93 100 99 72 70 85 86 79 78
52 55 62 60 58 52 57 62 60 58 59 60 59 60 59 58 57 58 59 59 54 56 50 51 79 81 86 89 72 72 77 80 88 95 98 100 99 78 74 88 87 82 80
49 55 66 64 54 62 66 65 63 62 57 58 58 59 57 55 54 50 55 60 62 62 57 53 54 72 83 85 88 76 75 78 84 94 98 100 100 95 81 89 88 82 82
44 52 71 66 64 70 68 69 68 66 62 57 56 52 56 55 53 55 54 58 61 68 64 61 62 61 65 73 77 78 76 79 82 93 96 100 100 96 81 92 88 80 82
48 50 66 66 57 68 65 68 70 70 65 68 61 50 51 56 57 56 65 68 70 69 68 64 64 63 59 63 75 77 78 80 83 95 97 100 100 96 88 94 92 82 84
50 53 60 61 62 61 68 70 74 65 67 66 61 53 43 37 49 64 67 72 78 74 68 67 60 65 64 64 71 80 82 83 84 97 95 100 100 91 84 91 84 85 81
52 53 64 68 67 67 61 62 68 72 65 64 68 63 62 39 42 52 64 66 74 71 73 70 63 64 66 65 64 73 65 84 87 93 98 100 100 92 90 91 85 84 82
52 54 64 72 72 67 68 64 64 68 72 66 73 67 62 59 59 35 50 64 69 70 78 66 61 64 66 65 64 65 61 62 78 90 99 99 99 91 90 89 90 84 87
55 48 55 63 66 64 65 68 65 70 65 69 60 67 71 70 66 69 44 49 63 65 67 68 62 63 69 65 64 64 63 68 59 76 91 100 100 90 92 88 88 86 84
52 58 55 59 61 61 64 65 68 68 74 76 70 69 73 76 76 72 59 47 58 62 65 71 71 69 68 64 64 59 63 70 68 56 88 99 100 99 96 94 91 83 84
52 55 62 64 64 66 69 70 76 80 78 82 82 78 72 71 70 73 65 56 56 62 61 72 74 75 70 68 64 61 62 67 59 44 87 100 100 100 91 90 88 86 85
57 64 70 73 73 75 78 84 84 89 88 90 80 89 85 80 75 71 70 64 53 60 60 65 70 72 73 74 71 61 70 63 67 42 78 99 100 98 84 100 93 89 84
72 73 78 82 91 91 90 98 98 100 100 98 92 96 96 87 83 77 74 68 54 57 56 63 59 72 72 70 77 83 79 64 85 60 74 100 100 95 84 91 100 93 83
80 88 99 99 99 99 99 99 99 99 99 99 99 99 100 98 94 86 81 70 59 54 55 58 61 69 67 75 61 70 65 67 86 76 80 99 90 91 86 93 100 94 79
92 99 98 99 98 97 97 98 99 98 98 98 100 100 100 100 99 96 86 71 65 59 61 64 67 73 73 85 80 64 60 71 94 96 96 100 93 87 94 93 98 90 81
98 99 98 98 98 98 97 98 98 99 99 100 98 100 99 99 100 98 93 79 70 62 61 59 66 68 74 78 90 88 84 73 100 100 100 100 95 100 97 98 96 87 80
96 97 97 96 98 96 96 96 96 98 97 97 98 99 100 100 100 99 91 83 75 66 67 63 68 77 94 99 100 94 95 96 100 100 100 86 92 92 82 99 92 84 84
100 100 100 98 99 98 98 99 97 97 97 97 97 98 98 99 99 98 96 87 81 69 70 66 64 76 80 94 90 83 87 100 100 100 100 99 96 92 96 95 90 86 83
100 100 98 98 98 99 99 99 97 96 97 98 98 98 99 99 99 92 83 92 82 71 71 65 66 72 74 90 80 84 89 100 100 100 100 100 100 100 99 94 86 85 88
100 99 98 99 99 99 99 99 98 98 97 99 98 98 99 98 95 89 85 88 78 73 72 65 63 63 69 74 87 84 99 100 98 100 100 100 99 100 100 95 84 84 91
99 99 99 100 100 99 99 99 98 98 98 99 98 95 95 98 99 94 91 87 78 77 73 70 70 73 70 75 83 99 100 100 100 100 93 100 100 99 99 91 87 92 94
100 99 100 99 99 99 98 98 99 98 99 98 93 96 99 97 96 90 83 84 81 75 59 73 86 98 78 76 87 98 100 100 100 100 95 98 100 100 100 100 99 97 98
100 100 100 100 100 100 98 99 98 99 100 100 99 100 100 98 96 90 85 84 80 76 54 72 97 94 84 84 99 99 100 97 99 100 100 99 100 99 100 100 100 100 100
100 100 100 100 100 99 98 99 97 97 98 99 97 99 90 94 88 83 83 81 76 77 70 72 97 84 83 89 99 100 98 98 98 98 98 97 100 97 99 100 100 100 100

GFSMA_925_rhum_336.txt.gz
RH
48 49 45 45 43 43 45 47 45 45 44 48 51 51 48 49 49 42 39 46 39 48 77 88 83 73 72 70 74 78 79 84 91 96 96 100 90 79 80 81 86 76 81
52 50 49 48 46 45 45 48 44 45 43 44 45 51 49 47 46 48 40 38 48 36 52 78 87 90 82 76 71 76 79 77 90 89 92 100 91 83 81 85 85 75 78
59 62 50 49 47 48 55 52 53 51 48 44 46 46 49 48 45 46 46 40 38 43 33 44 77 86 88 94 78 73 78 78 81 82 88 96 99 87 81 89 84 78 78
64 60 54 50 50 53 52 50 49 46 44 43 42 42 42 43 43 45 44 44 39 40 42 34 57 76 81 88 94 73 74 78 78 78 85 97 100 90 84 91 84 80 80
58 60 53 50 54 56 55 53 50 49 46 44 42 42 43 41 40 37 38 42 47 50 43 44 48 71 75 84 89 90 75 77 78 85 87 97 100 92 83 91 85 80 84
48 56 52 54 58 56 54 52 53 48 49 46 41 36 39 41 40 38 37 39 39 49 54 49 47 55 46 50 81 86 84 75 78 84 94 98 100 89 85 92 86 81 85
48 52 50 48 56 56 52 50 53 54 52 49 50 42 38 38 44 41 37 38 43 48 54 54 50 47 51 45 70 74 78 76 79 83 96 99 100 92 91 93 88 83 84
52 51 50 47 45 46 48 54 54 51 46 45 47 45 35 27 37 42 42 47 53 54 51 56 49 48 51 48 53 72 80 78 81 84 97 99 100 100 92 95 89 85 84
49 51 51 51 49 50 48 48 52 53 50 41 47 53 58 32 29 38 48 46 55 52 53 54 53 50 55 52 57 69 79 77 83 89 99 99 100 100 91 96 89 92 86
47 50 49 51 52 51 50 50 50 50 49 47 41 50 50 50 58 37 37 49 56 58 60 54 52 51 52 57 59 58 69 56 76 86 95 99 100 100 91 96 96 91 83
48 48 49 49 51 52 51 53 51 52 50 50 45 46 50 47 50 59 46 35 46 51 52 57 48 49 52 54 56 60 57 54 60 76 90 99 100 100 99 92 90 86 82
39 39 43 50 51 48 50 52 53 55 52 50 50 48 55 61 56 57 51 38 36 47 51 51 56 50 52 55 56 57 57 62 63 55 81 98 100 100 98 93 88 85 81
35 37 40 47 52 53 52 51 51 53 54 54 55 56 52 67 65 58 54 47 36 42 50 53 52 52 54 54 55 54 55 61 62 55 70 96 100 100 100 94 88 84 79
37 41 48 54 60 66 65 62 60 58 58 62 65 67 66 66 70 67 57 52 43 41 47 50 55 54 54 56 56 52 72 57 55 43 66 95 100 100 100 94 94 84 76
48 50 58 65 72 78 86 93 92 87 83 94 87 80 78 77 71 70 67 55 47 41 42 54 51 57 55 62 62 61 62 68 61 45 51 97 96 100 100 100 97 86 74
74 94 95 98 99 98 98 99 100 100 100 99 95 97 85 83 77 76 76 66 53 41 39 44 46 55 56 55 69 71 66 64 70 51 67 99 99 100 96 97 94 89 76
97 97 98 97 98 99 99 99 99 99 99 99 100 100 100 88 89 82 76 69 56 47 50 47 48 61 61 58 62 68 68 65 78 81 81 100 94 72 94 96 96 90 77
100 100 95 93 95 94 94 95 98 98 99 99 99 99 100 99 95 78 78 69 58 49 58 56 54 58 56 65 65 65 58 70 97 85 98 100 92 91 100 93 96 88 79
100 99 99 98 95 93 95 96 96 96 98 98 98 95 95 97 98 91 77 74 63 54 60 55 56 52 61 67 71 72 70 99 98 92 99 92 88 96 93 90 95 87 80
100 99 99 96 97 96 95 93 94 92 98 99 97 97 100 100 97 93 80 69 70 58 60 60 57 55 60 66 63 57 74 99 99 99 100 100 96 90 93 94 98 86 82
100 99 98 99 99 99 98 98 94 92 100 99 99 90 99 99 98 97 88 76 70 59 64 60 51 50 53 68 61 59 88 99 100 100 100 100 100 100 100 100 96 85 86
100 99 99 99 99 99 99 98 95 96 98 97 98 99 99 100 99 96 86 74 68 62 67 61 52 48 54 61 58 73 98 100 98 100 100 100 100 100 100 100 92 88 88
98 99 100 99 99 99 99 98 96 94 90 95 98 99 99 100 97 97 88 76 70 69 63 58 50 50 56 62 64 88 99 100 100 100 96 100 99 100 100 99 91 89 89
100 100 99 98 98 99 99 98 96 97 92 93 95 98 97 99 98 100 85 75 74 73 70 57 55 59 59 63 72 94 100 100 100 100 82 98 100 100 100 100 98 89 94
100 95 99 98 99 98 98 95 95 96 99 98 98 99 99 99 98 86 76 68 70 70 72 91 82 80 76 80 85 98 100 96 98 100 100 98 100 99 100 100 100 99 99
96 86 98 99 96 98 97 97 86 82 92 97 99 98 94 85 78 74 67 63 65 68 63 81 86 84 78 95 98 100 96 94 97 97 100 96 100 98 99 100 100 100 100

GFSMA_925_rhum_339.txt.gz
RH
46 47 44 43 40 38 39 42 41 41 42 42 44 46 44 43 44 42 35 41 38 31 45 79 91 83 73 72 72 76 77 80 84 94 96 100 93 83 85 84 90 76 79
52 49 47 45 43 41 40 40 41 41 40 40 40 42 45 43 41 43 40 36 40 37 27 48 79 90 91 90 78 74 77 78 85 90 91 99 98 92 84 87 88 76 79
58 59 54 49 43 42 46 49 49 47 46 42 39 41 42 44 44 44 44 40 34 40 39 25 55 79 89 89 93 79 76 77 81 91 87 92 98 96 86 88 87 78 79
61 60 55 48 45 46 46 45 46 44 42 39 38 39 36 37 39 42 44 42 37 35 44 44 28 70 76 87 90 94 74 76 77 89 84 89 98 94 90 89 87 80 81
51 56 54 46 45 46 48 48 46 45 43 42 39 38 38 38 37 35 35 37 41 44 42 42 40 36 72 78 90 94 90 75 77 81 90 84 97 96 92 91 87 82 82
48 51 47 48 50 48 46 46 47 46 44 42 40 33 33 36 36 36 36 37 37 40 46 48 49 59 38 52 80 91 89 88 76 77 88 86 96 99 94 94 88 81 83
50 49 45 44 45 47 49 46 48 49 48 46 44 43 40 38 39 41 38 35 34 36 44 51 50 44 55 36 52 83 85 82 75 77 86 93 98 100 96 95 90 82 87
47 50 49 47 43 41 43 50 50 47 44 43 43 40 40 32 31 36 40 35 39 42 43 50 49 46 46 56 54 66 79 78 76 80 86 90 97 100 97 96 90 84 88
36 42 48 49 47 45 43 44 47 49 47 43 41 46 55 39 25 36 43 41 41 49 46 46 50 48 48 49 50 57 68 81 81 83 87 95 98 100 97 97 91 87 88
39 42 45 47 49 49 47 46 46 47 46 45 41 40 47 54 59 38 35 43 47 53 52 50 49 51 47 55 52 60 66 67 75 81 91 100 99 100 94 100 93 91 90
38 40 45 49 50 52 51 50 48 47 46 46 42 41 42 46 47 55 52 37 43 43 45 54 49 50 48 52 54 60 60 68 61 71 84 96 99 100 98 97 96 92 91
33 33 36 41 46 50 52 51 51 52 51 47 44 43 46 56 56 52 49 44 33 39 44 46 51 48 47 51 53 54 59 55 49 56 76 88 98 100 100 100 94 95 88
30 30 32 37 42 46 51 52 52 54 54 54 50 48 47 58 58 54 52 46 38 35 45 48 48 49 47 51 53 55 58 54 56 62 54 81 97 100 99 100 96 93 85
39 39 41 44 46 45 48 53 56 55 55 58 57 55 56 57 65 64 59 51 45 35 41 45 48 49 50 51 52 54 57 50 54 58 54 70 95 100 100 100 100 91 83
73 79 85 98 83 75 65 69 74 77 70 68 66 64 64 68 73 67 61 59 47 41 41 45 46 51 51 54 62 61 57 74 47 52 44 74 96 100 100 100 99 90 82
98 98 99 98 99 98 100 98 95 91 88 96 96 82 89 80 85 80 70 62 54 43 38 39 44 49 52 51 66 63 61 67 64 52 36 86 93 100 98 98 99 92 79
99 100 100 98 96 98 97 94 97 99 96 100 100 100 99 96 87 94 80 65 58 49 45 42 50 52 56 54 65 75 66 59 59 57 51 90 96 99 100 88 97 94 83
99 99 100 100 96 97 94 99 99 100 100 99 99 100 99 84 96 80 82 70 63 54 48 51 51 56 56 58 60 63 56 48 62 68 77 83 81 100 100 93 98 90 88
99 99 98 97 95 95 95 93 98 98 98 99 98 99 99 92 100 87 86 75 62 58 56 51 55 54 54 57 61 62 60 78 88 86 99 100 98 100 93 88 95 97 91
99 99 99 98 99 97 94 94 97 99 98 99 100 100 99 100 99 90 93 76 63 61 60 57 55 55 60 57 59 61 65 94 99 99 100 97 89 86 87 98 97 92 88
98 99 99 99 99 100 99 98 98 99 95 99 99 100 98 99 97 90 87 78 63 60 60 63 57 50 50 56 59 51 68 96 100 100 100 100 99 100 100 100 98 94 87
97 100 99 98 99 99 99 99 98 99 97 99 100 100 95 97 98 92 93 75 63 62 62 62 58 45 47 55 54 62 96 98 99 100 100 100 100 100 100 96 99 92 89
98 98 97 99 100 100 98 99 98 100 100 100 98 97 99 99 96 88 97 82 63 62 62 63 54 45 51 55 58 96 98 98 100 100 96 100 100 99 100 100 99 94 94
91 93 97 99 100 99 99 99 98 96 98 97 99 99 94 99 100 93 92 70 64 68 68 65 70 54 56 60 80 96 99 99 100 100 88 98 100 99 100 100 100 98 95
89 96 98 99 98 98 97 96 95 96 99 96 98 100 99 99 93 94 76 67 68 74 75 74 82 68 79 89 83 98 100 97 98 100 99 98 100 99 100 100 100 100 95
92 96 99 99 96 98 99 98 89 93 99 99 97 99 99 99 96 82 80 75 86 84 66 76 74 68 74 90 97 100 94 93 98 98 99 96 99 98 98 100 100 100 100

GFSMA_925_rhum_345.txt.gz
RH
55 51 49 47 46 44 43 42 41 42 44 44 45 45 45 46 44 43 44 45 43 40 35 51 74 89 81 77 78 74 69 83 92 97 100 94 91 84 88 89 89 82 85
50 52 53 53 52 50 46 43 41 43 45 46 46 44 42 43 45 44 45 46 46 42 39 36 56 80 91 87 86 81 75 71 88 91 100 97 86 86 89 92 89 84 85
52 54 56 57 56 54 50 47 44 44 46 46 46 43 41 40 42 43 44 45 46 45 42 40 37 60 84 82 86 87 82 77 80 90 97 100 92 88 91 92 88 86 83
51 56 59 59 57 57 54 49 47 48 49 49 47 46 42 41 41 42 42 44 43 43 43 45 44 49 63 81 87 85 89 78 77 88 90 100 99 92 92 94 90 85 82
53 54 53 60 60 56 54 50 50 49 50 48 47 46 43 42 40 39 41 40 39 40 40 43 47 47 49 65 78 86 89 87 76 82 86 93 100 95 96 94 89 84 84
50 53 56 55 53 53 52 49 48 54 50 50 47 48 45 45 43 42 39 38 39 38 39 40 45 48 48 59 66 76 85 85 83 77 90 87 100 99 98 96 91 85 86
57 56 60 58 53 54 50 49 49 52 55 52 51 49 48 45 44 41 40 38 38 40 39 38 42 49 50 54 58 70 84 84 83 77 83 89 93 100 99 96 94 87 87
50 57 59 54 54 53 49 47 50 50 50 56 52 58 76 57 47 44 42 41 39 40 39 39 39 47 51 50 51 57 71 85 83 80 79 92 84 99 99 99 97 89 89
40 40 39 49 51 48 50 49 48 49 57 51 56 56 84 76 66 41 42 45 40 43 38 43 45 48 50 50 54 54 52 80 87 82 78 88 83 98 100 97 100 93 90
40 39 42 42 45 49 51 51 49 47 52 60 54 53 53 47 90 86 54 47 43 43 42 48 50 50 48 50 50 59 48 41 80 74 76 85 85 92 100 99 99 93 92
38 36 35 34 38 47 49 51 52 49 49 53 59 54 52 54 47 68 79 65 48 44 48 47 53 55 51 49 50 61 57 34 76 78 80 80 92 92 100 100 100 93 93
41 46 42 42 47 55 75 58 51 52 51 53 56 54 54 57 60 62 80 72 59 47 48 50 50 55 53 50 49 55 63 64 53 77 81 78 87 95 100 100 100 93 92
50 50 51 53 54 59 63 73 80 55 52 51 52 58 54 50 50 51 51 67 64 51 50 49 48 49 54 50 50 54 61 61 60 60 68 78 82 94 100 100 99 94 90
64 66 67 67 69 68 74 80 69 86 62 52 52 54 56 50 50 53 56 62 77 66 50 48 48 50 51 51 50 53 57 64 60 55 50 43 73 86 100 100 99 95 90
77 77 73 69 68 67 85 96 96 84 91 69 54 56 56 54 55 56 56 55 64 85 76 53 50 50 50 52 50 55 56 56 55 55 41 45 55 85 98 100 98 96 89
77 78 80 81 82 84 84 93 99 100 96 98 74 58 59 56 57 61 60 57 56 67 84 62 56 51 53 54 55 58 58 56 60 50 43 48 53 82 99 100 96 98 94
86 92 95 95 93 89 92 99 98 100 100 99 96 73 64 65 64 64 64 59 56 62 72 63 67 51 50 54 58 62 62 52 62 70 60 47 50 85 99 100 100 97 93
99 98 98 98 100 99 99 99 98 100 100 100 100 96 78 78 76 71 69 63 55 63 61 66 70 59 52 56 55 59 64 73 70 65 64 53 63 99 95 100 100 100 93
97 94 85 94 99 100 99 97 100 98 99 100 100 99 100 92 94 84 73 66 61 64 62 60 67 64 50 55 57 60 67 74 75 69 61 60 99 96 97 99 100 96 95
100 100 100 99 100 99 100 98 98 98 98 99 100 98 97 99 99 95 80 66 69 68 63 58 63 65 51 51 59 58 65 93 86 90 58 95 97 100 100 100 90 86 90
96 100 100 98 99 99 99 100 100 100 100 100 100 99 99 87 85 99 86 72 73 71 62 61 71 63 50 57 59 63 70 85 80 99 78 100 100 100 100 98 98 86 83
93 99 99 99 100 99 100 100 99 100 100 99 100 100 100 100 84 90 84 75 78 68 64 64 72 64 54 55 54 61 78 84 92 100 100 100 100 100 100 100 96 88 87
96 100 99 99 99 100 99 100 100 100 100 99 98 98 100 100 100 89 87 76 78 64 57 67 75 78 67 66 55 57 73 76 100 100 97 100 100 99 100 100 100 99 96
100 100 100 99 100 100 100 99 99 100 100 99 98 100 98 98 99 86 86 97 79 68 62 66 70 66 61 69 70 59 81 94 100 100 96 98 100 100 100 100 100 100 100
100 100 100 100 100 100 99 99 99 98 99 98 99 99 99 100 95 91 98 91 74 68 64 62 64 65 86 69 66 86 97 100 99 100 100 97 100 99 100 100 100 100 100
97 99 99 100 100 100 99 99 98 96 99 98 98 98 98 99 99 100 94 79 72 66 63 60 64 94 100 99 76 87 93 100 97 99 99 97 100 97 98 100 100 100 100